カタログに戻る

STARLINK-3570

運用中通信VLEO
NORAD 51882·PAYLOAD·🇺🇸 United States

打ち上げ Mar 3, 2022 から Cape Canaveral Space Force Station

Loading…

次のパス (今後24時間)

TLE

最新Source: CelesTrak SupGP

元期: Sep 15, 2026, 01:29 UTC

1 51882C 22022AG  26258.06229167 -.00055804  00000+0 -17946-2 0  2588
2 51882  53.1570 215.0835 0001252  90.1241  55.5179 15.31727702    16

AllMySatでSTARLINK-3570をリアルタイム追跡

Download on the App Store